Change the Weather History Date:

Wednesday, March 6, 2013

  Actual Average Record
Temperature  
Mean Temperature 40 °F -  
Max Temperature 45 °F 55 °F 100 °F (1998)
Min Temperature 35 °F 35 °F 17 °F (1975)
Degree Days  
Heating Degree Days 25    
Moisture  
Dew Point 28 °F    
Average Humidity 66    
Maximum Humidity 100    
Minimum Humidity 42    
Precipitation  
Precipitation 0.10 in - - ()
Sea Level Pressure  
Sea Level Pressure 29.79 in    
Wind  
Wind Speed 9 mph (NW)    
Max Wind Speed 21 mph    
Max Gust Speed 37 mph    
Visibility 10 miles    
Events Rain    
Averages and records for this station are not official NWS values.
T = Trace of Precipitation, MM = Missing Value Source: NWS Daily Summary

Daily Weather History Graph

Daily Weather History Graph

Search for Another Location

Airport or City:

Trip Planner

Search our weather history database for the weather conditions in past years. The results will help you decide how hot, cold, wet, or windy it might be!

Date:

Astronomy

Mar. 06, 2013 Rise Set
Actual Time 6:44 AM EST 6:20 PM EST
Civil Twilight 6:18 AM EST 6:46 PM EST
Nautical Twilight 5:48 AM EST 7:16 PM EST
Astronomical Twilight 5:18 AM EST 7:45 PM EST
Moon 2:44 AM EST (3/6) 1:08 PM EST (3/6)
Length of Visible Light 12h 27m
Length of Day
11h 36m
Waning Crescent, 30% of the Moon is Illuminated
Mar 6
Waning Crescent
Mar 11
New
Mar 19
First Quarter
Mar 27
Full
Apr 3
Last Quarter

Hourly Weather History & Observations

Time (EST) Temp. Windchill Dew Point Humidity Pressure Visibility Wind Dir Wind Speed Gust Speed Precip Events Conditions
12:12 AM 41.0 °F 39.0 °F 39.2 °F 93% 29.59 in 4.0 mi North 3.5 mph - 0.02 in Rain Rain
12:20 AM 41.0 °F 38.0 °F 39.2 °F 93% 29.60 in 8.0 mi NNW 4.6 mph - 0.02 in Rain Light Rain
12:54 AM 39.9 °F - 39.0 °F 97% 29.59 in 5.0 mi Calm Calm - 0.09 in Rain Rain
1:07 AM 39.2 °F 34.2 °F 39.2 °F 100% 29.59 in 10.0 mi NNE 6.9 mph - 0.01 in Rain Light Rain
1:40 AM 39.2 °F 33.0 °F 37.4 °F 93% 29.60 in 10.0 mi North 9.2 mph - 0.01 in Rain Light Rain
1:54 AM 39.9 °F 34.5 °F 37.9 °F 93% 29.61 in 10.0 mi North 8.1 mph - 0.01 in   Overcast
2:21 AM 39.2 °F 37.0 °F 37.4 °F 93% 29.60 in 10.0 mi North 3.5 mph - 0.00 in   Overcast
2:54 AM 41.0 °F 34.7 °F 35.1 °F 79% 29.61 in 10.0 mi WNW 10.4 mph 18.4 mph 0.00 in   Overcast
3:54 AM 37.9 °F 31.5 °F 28.0 °F 68% 29.63 in 10.0 mi WNW 9.2 mph 17.3 mph N/A   Overcast
4:54 AM 37.0 °F 31.6 °F 26.1 °F 65% 29.64 in 10.0 mi WNW 6.9 mph - N/A   Overcast
5:54 AM 36.0 °F 29.6 °F 25.0 °F 64% 29.66 in 10.0 mi WNW 8.1 mph 19.6 mph N/A   Overcast
6:54 AM 35.1 °F 25.9 °F 21.9 °F 59% 29.67 in 10.0 mi WNW 13.8 mph 21.9 mph N/A   Overcast
7:54 AM 35.1 °F 25.5 °F 19.0 °F 52% 29.71 in 10.0 mi WNW 15.0 mph 29.9 mph N/A   Overcast
8:54 AM 36.0 °F 26.7 °F 19.9 °F 52% 29.74 in 10.0 mi WNW 15.0 mph 25.3 mph N/A   Overcast
9:54 AM 39.0 °F 31.4 °F 21.0 °F 49% 29.75 in 10.0 mi WNW 12.7 mph 27.6 mph N/A   Mostly Cloudy
10:54 AM 41.0 °F 31.6 °F 21.0 °F 45% 29.76 in 10.0 mi WNW 20.7 mph 36.8 mph N/A   Partly Cloudy
11:54 AM 43.0 °F 35.1 °F 21.9 °F 43% 29.78 in 10.0 mi WNW 17.3 mph 31.1 mph N/A   Scattered Clouds
12:54 PM 44.1 °F 36.2 °F 21.9 °F 42% 29.79 in 10.0 mi WNW 18.4 mph 35.7 mph N/A   Partly Cloudy
1:54 PM 43.0 °F 35.7 °F 23.0 °F 45% 29.81 in 10.0 mi WNW 15.0 mph 26.5 mph N/A   Partly Cloudy
2:54 PM 45.0 °F 37.6 °F 24.1 °F 44% 29.84 in 10.0 mi NW 17.3 mph 27.6 mph N/A   Overcast
3:54 PM 42.1 °F 33.1 °F 24.1 °F 49% 29.90 in 10.0 mi NW 20.7 mph 34.5 mph N/A   Scattered Clouds
4:54 PM 43.0 °F 34.8 °F 25.0 °F 49% 29.94 in 10.0 mi NW 18.4 mph 29.9 mph N/A   Partly Cloudy
5:54 PM 39.9 °F 30.8 °F 25.0 °F 55% 29.99 in 10.0 mi NW 18.4 mph 24.2 mph N/A   Clear
6:54 PM 37.9 °F 27.9 °F 25.0 °F 60% 30.03 in 10.0 mi NW 19.6 mph 27.6 mph N/A   Clear
7:54 PM 37.0 °F 30.4 °F 25.0 °F 62% 30.05 in 10.0 mi NW 9.2 mph 20.7 mph N/A   Clear
8:54 PM 36.0 °F 29.0 °F 26.1 °F 67% 30.06 in 10.0 mi NNW 9.2 mph - N/A   Clear
9:54 PM 36.0 °F 31.1 °F 26.1 °F 67% 30.08 in 10.0 mi NNW 5.8 mph - N/A   Clear
10:54 PM 37.0 °F 32.4 °F 26.1 °F 65% 30.09 in 10.0 mi North 5.8 mph - N/A   Overcast
11:54 PM 37.0 °F 28.9 °F 27.0 °F 67% 30.09 in 10.0 mi NNW 12.7 mph - N/A   Overcast